Home > Time Zones > World Clock > Weather > Iran > Kerman > Past weeks

Flag for Iran Weather past 2 weeks in Kerman, Iran

Now
54 °F

Clear.


Feels Like: 53 °F
Forecast: 47 / 87 °F
Wind: 5 mph from South

Location: Kerman Airport

Current Time: Aug 29, 2014 at 4:42:37 AM

Latest Report: Aug 29, 2014 at 3:30 AM


Visibility: 10 mi

Pressure: 30.07 "Hg

Humidity: 22%

Dew point: 16 °F

Location of KermanLocation

Historic Weather in Kerman — Graph

°F

Kerman temperature yesterday

Maximum temperature yesterday: 88 °F (at 4:30 PM)
Minimum temperature yesterday: 55 °F (at 6:30 AM)
Average temperature yesterday: 76 °F

Past Weeks' High & Low Weather Summary

 TemperatureHumidityPressure
High95 °F (Aug 14, 2:30 PM)37% (Aug 16, 6:30 AM)30.21 "Hg (Aug 16, 6:30 AM)
Low54 °F (Aug 23, 6:30 AM)3% (Aug 17, 6:30 PM)29.95 "Hg (Aug 16, 5:30 PM)
Average79 °F13%30.08 "Hg
* Reported Aug 14 3:30 AM — Aug 29 3:30 AM, Kerman, Weather by CustomWeather, © 2014

Note: Actual official high and low records may vary slightly from our data, if they occured in-between our weather recording intervals... More about our weather records

Advertising

Kerman weather history for previous 24 hours

 ConditionsComfort  
Time TempWeatherWind HumidityBarometerVisibility
3:30 AM
Aug 29
54 °FClear.5 mph22%30.07 "Hg10 mi
2:30 AM57 °FClear.7 mph21%30.07 "Hg10 mi
1:30 AM66 °FClear.5 mph13%30.07 "Hg10 mi
12:30 AM68 °FClear.5 mph11%30.07 "Hg10 mi
11:30 PM
Aug 28
72 °FClear.5 mph8%30.07 "Hg10 mi
10:30 PM72 °FClear.7 mph10%30.07 "Hg10 mi
9:30 PM75 °FClear.7 mph10%30.04 "Hg10 mi
7:30 PM81 °FSunny.7 mph6%30.01 "Hg10 mi
6:30 PM86 °FSunny.14 mph4%29.98 "Hg10 mi
5:30 PM86 °FSunny.14 mph5%30.01 "Hg10 mi
4:30 PM88 °FPassing clouds.14 mph6%30.01 "HgN/A
3:30 PM86 °FPassing clouds.9 mph7%30.01 "HgN/A
2:30 PM86 °FPassing clouds.7 mph7%30.04 "HgN/A
2:00 PM84 °FPassing clouds.5 mph9%30.04 "HgN/A
1:30 PM84 °FPassing clouds.5 mph9%30.04 "HgN/A
1:00 PM84 °FPassing clouds.7 mph8%30.07 "HgN/A
12:30 PM82 °FSunny.9 mph9%30.07 "Hg10 mi
12:00 PM82 °FSunny.9 mph9%30.09 "Hg10 mi
11:30 AM82 °FSunny.7 mph9%30.09 "Hg10 mi
11:00 AM81 °FSunny.7 mph11%30.09 "Hg10 mi
10:30 AM81 °FSunny.7 mph11%30.09 "Hg10 mi
10:00 AM81 °FSunny.No wind12%30.09 "Hg10 mi
9:30 AM79 °FSunny.No wind12%30.09 "Hg10 mi
9:00 AM77 °FSunny.No wind11%30.09 "Hg10 mi
8:30 AM73 °FSunny.5 mph14%30.09 "Hg10 mi
8:00 AM61 °FSunny.7 mph22%30.07 "Hg10 mi
7:30 AM61 °FClear.7 mph22%30.07 "Hg10 mi
6:30 AM55 °FClear.No wind28%30.07 "Hg10 mi
5:30 AM57 °FClear.No wind27%30.04 "Hg10 mi
4:30 AM61 °FClear.No wind23%30.04 "Hg10 mi
Weather by CustomWeather, © 2014

See weather overviewHow to use our weather pages